Weather in Tavilzhanka

Ukraine / Kharkiv Region     49°50′50″N   37°46′21″E
temp.,
°C
wind,
m/s
gust,
m/s
humid.,
%
clouds,
%
prec.,
mm/h
press.,
hPa
HPBL,
m
17 april, sat
sat1700:00+8sw247199 0.0 1018146
03:00+7s1178100 0.1 101811
06:00+7ssw248888 0.6 1018220
09:00+9wsw55675 0.6 1019706
12:00+12sw454567 0.0 10191900
15:00+11sw565186 0.0 10191608
18:00+10wsw5659100 0.0 10201237
21:00+8sw366982 0.0 1020433
18 april, sun
sun1800:00+8ssw3674100 0.0 1020297
03:00+6ssw367780 0.0 1020146
06:00+7sw2474100 0.0 1020161
09:00+9ssw236246 0.0 1020514
12:00+14ssw3445100 0.1 10192089
15:00+13sw2346100 0.1 10191203
18:00+13ene3448100 0.0 1018558
21:00+11e61156100 0.0 1019341
19 april, mon
mon1900:00+10ese51060100 0.0 1018308
03:00+9se2570100 0.0 1018166
06:00+8ne2282100 0.4 1018101
09:00+8e2585100 1.3 1018341
12:00+9e5880100 0.2 1016655
15:00+9e4880100 0.3 1016533
18:00+9ene3683100 0.0 1015406
21:00+8ene3690100 0.0 1014269
20 april, tue
tue2000:00+8ene3593100 0.0 1012280
03:00+8ene3596100 0.0 1010248
06:00+9ene4897100 0.1 1008360
09:00+10ene71496100 3.6 1002560
12:00+13e9178898 6.8 998864
15:00+16sse121981100 7.9 9951272
18:00+14s1017747 1.3 9971303
21:00+11s10187598 1.6 9991349
21 april, wed
wed2100:00+9s101589100 1.6 9991060
03:00+8sw91487100 2.0 10031263
06:00+8sw81384100 0.1 10071322
09:00+9sw71278100 0.2 10111035
12:00+12sw81158100 0.1 10141727
15:00+13sw686145 0.3 10151279
18:00+13wsw46618 0.3 10171174
21:00+10nw1170100 0.4 101911